TimeCET,TemperatureF,Dew PointF,Humidity,Sea Level PressureIn,VisibilityMPH,Wind Direction,Wind SpeedMPH,Gust SpeedMPH,PrecipitationIn,Events,Conditions,WindDirDegrees,DateUTC
5:30 AM,60.8,48.2,63,30.04,-9999.0,SSW,5.8,-,N/A,,Clear,200,2012-11-15 04:30:00
6:00 AM,62.6,48.2,59,30.04,-9999.0,SSW,11.5,-,N/A,,Clear,200,2012-11-15 05:00:00
6:30 AM,62.6,48.2,59,30.04,-9999.0,SSW,9.2,-,N/A,,Clear,200,2012-11-15 05:30:00
7:00 AM,62.6,48.2,59,30.04,-9999.0,SSW,9.2,-,N/A,,Clear,200,2012-11-15 06:00:00
7:30 AM,62.6,48.2,59,30.04,-9999.0,SSW,9.2,-,N/A,,Clear,200,2012-11-15 06:30:00
8:00 AM,60.8,48.2,63,30.04,-9999.0,SSW,9.2,-,N/A,,Clear,200,2012-11-15 07:00:00
8:30 AM,60.8,48.2,63,30.04,-9999.0,SW,8.1,-,N/A,,Clear,230,2012-11-15 07:30:00
9:00 AM,62.6,48.2,59,30.04,-9999.0,SW,11.5,-,N/A,,Clear,220,2012-11-15 08:00:00
9:30 AM,62.6,48.2,59,30.04,-9999.0,SW,10.4,-,N/A,,Clear,220,2012-11-15 08:30:00
10:00 AM,64.4,48.2,56,30.04,-9999.0,South,6.9,-,N/A,,Clear,190,2012-11-15 09:00:00
10:30 AM,64.4,48.2,56,30.04,-9999.0,South,8.1,-,N/A,,Clear,190,2012-11-15 09:30:00
11:00 AM,66.2,50.0,56,30.04,-9999.0,Variable,2.3,-,N/A,,Clear,0,2012-11-15 10:00:00
12:30 PM,-9999,-9999,N/A,-9999,-9999.0,SSW,12.7,-,N/A,,Clear,200,2012-11-15 11:30:00
1:00 PM,69.8,46.4,43,30.01,-9999.0,SSW,13.8,-,N/A,,Clear,200,2012-11-15 12:00:00
1:30 PM,71.6,48.2,43,29.98,-9999.0,SSW,13.8,25.3,N/A,,Clear,200,2012-11-15 12:30:00
2:00 PM,71.6,48.2,43,29.98,-9999.0,South,11.5,-,N/A,,Clear,190,2012-11-15 13:00:00
2:30 PM,71.6,50.0,46,29.98,-9999.0,South,11.5,-,N/A,,Clear,180,2012-11-15 13:30:00
3:00 PM,71.6,50.0,46,29.95,-9999.0,South,11.5,-,N/A,,Clear,180,2012-11-15 14:00:00
3:30 PM,73.4,51.8,47,29.95,-9999.0,South,9.2,-,N/A,,Clear,170,2012-11-15 14:30:00
4:00 PM,73.4,48.2,41,29.95,-9999.0,South,5.8,-,N/A,,Clear,170,2012-11-15 15:00:00
4:30 PM,73.4,51.8,47,29.95,-9999.0,Variable,1.2,-,N/A,,Clear,0,2012-11-15 15:30:00
5:00 PM,71.6,51.8,50,29.95,-9999.0,Variable,1.2,-,N/A,,Clear,0,2012-11-15 16:00:00
5:30 PM,68.0,55.4,64,29.95,-9999.0,East,4.6,-,N/A,,Clear,90,2012-11-15 16:30:00
6:00 PM,64.4,55.4,73,29.95,-9999.0,ESE,3.5,-,N/A,,Clear,110,2012-11-15 17:00:00
6:30 PM,62.6,53.6,72,29.95,-9999.0,SE,2.3,-,N/A,,Clear,130,2012-11-15 17:30:00
7:00 PM,62.6,53.6,72,29.95,-9999.0,ESE,3.5,-,N/A,,Clear,120,2012-11-15 18:00:00
7:30 PM,60.8,51.8,72,29.95,-9999.0,Variable,1.2,-,N/A,,Clear,0,2012-11-15 18:30:00
8:00 PM,60.8,51.8,72,29.95,-9999.0,Variable,2.3,-,N/A,,Clear,0,2012-11-15 19:00:00
8:30 PM,57.2,51.8,82,29.95,-9999.0,SE,3.5,-,N/A,,Clear,140,2012-11-15 19:30:00
9:00 PM,57.2,51.8,82,29.95,-9999.0,South,4.6,-,N/A,,Clear,190,2012-11-15 20:00:00
9:30 PM,62.6,50.0,63,29.98,-9999.0,SW,9.2,-,N/A,,Clear,230,2012-11-15 20:30:00
10:00 PM,59.0,48.2,67,29.98,-9999.0,West,3.5,-,N/A,,Clear,260,2012-11-15 21:00:00
10:30 PM,59.0,50.0,72,29.98,-9999.0,WNW,1.2,-,N/A,,Clear,300,2012-11-15 21:30:00
11:00 PM,62.6,50.0,63,29.98,-9999.0,Variable,2.3,-,N/A,,Clear,0,2012-11-15 22:00:00